Regional Weather Roundup
Issued by NWS Cleveland, OH

Home | Current Version | Previous Version | Text Only | Print | Product List | Glossary Off
Versions: 1 2 3 4 5 6 7 8 9 10 11 12 13 14 15 16 17 18 19 20 21 22 23 24 25 26 27 28 29 30 31 32 33 34 35 36 37 38 39 40 41 42 43 44 45 46 47 48 49 50

000
ASUS41 KCLE 171602
RWRCLE
OHIO REGIONAL WEATHER ROUNDUP
NATIONAL WEATHER SERVICE CLEVELAND, OH
1100 AM EST FRI NOV 17 2017

NOTE: "FAIR" INDICATES FEW OR NO CLOUDS BELOW 12,000 FEET WITH NO
SIGNIFICANT WEATHER AND/OR OBSTRUCTIONS TO VISIBILITY.

OHZ001>008-015>018-024>027-034-035-043-044-171700-
   NORTHWEST OHIO

CITY           SKY/WX    TMP DP  RH WIND       PRES   REMARKS
DEFIANCE       PTSUNNY   38  29  70 SE12G17   30.19F
FINDLAY        MOSUNNY   40  29  64 SE17G24   30.20F
TOLEDO EXPRESS CLOUDY    39  30  70 SE9       30.21S
TOLEDO EXEC    CLOUDY    40  29  64 SE14      30.23F
LIMA           CLOUDY    40  33  76 SE16      30.20F
$$

OHZ009>014-019>023-028>033-038-089-171700-
   NORTHEAST OHIO

CITY           SKY/WX    TMP DP  RH WIND       PRES   REMARKS
CLE-HOPKINS    CLOUDY    41  29  62 S8        30.26F
CLE-LAKEFRONT  MOSUNNY   42  28  57 S9        30.24F
CUY CO. ARPT   PTSUNNY   41  30  65 S12       30.25F
LORAIN-ELYRIA  PTSUNNY   40  26  57 S9        30.24F
ASHTABULA      CLOUDY    38  29  70 S3        30.26F
AKRON-CANTON   CLOUDY    39  28  64 S7        30.25F
WOOSTER        CLOUDY    38  28  67 SE9       30.25F
MANSFIELD      MOSUNNY   38  28  67 SE13      30.22F
YOUNGSTOWN     PTSUNNY   37  26  64 CALM      30.25F
$$

OHZ042-051>053-060>062-070>072-077>081-171700-
  SOUTHWEST OHIO

CITY           SKY/WX    TMP DP  RH WIND       PRES   REMARKS
CINC-COVINGTON MOSUNNY   39  32  76 S9        30.21F
CINC-LUNKEN    SUNNY     42  33  70 SE5       30.24F
HAMILTON       SUNNY     41  32  70 VRB7      30.23F
DAYTON         PTSUNNY   39  32  76 SE12      30.21F
WRIGHT-PAT AFB MOSUNNY   40  31  69 SE10G18   30.20F
DAYTON GENERAL CLOUDY    40  30  67 SE14      30.19F
WILMINGTON     SUNNY     39  33  79 SE8       30.22F
$$

OHZ036-037-039>041-045>050-054>059-063>069-073>076-082>088-171700-
  CENTRAL AND SOUTHEAST OHIO

CITY           SKY/WX    TMP DP  RH WIND       PRES   REMARKS
COLUMBUS       PTSUNNY   41  31  67 SE12      30.24F
OSU AIRPORT    PTSUNNY   40  32  73 SE7       30.23F
BOLTON FIELD   NOT AVBL
RICKENBACK AFB CLOUDY    40  32  72 S9        30.24F
NEWARK         CLOUDY    41  29  62 SE9       30.26F
MARION         PTSUNNY   39  30  70 S15       30.21F
LANCASTER      MOSUNNY   41  31  67 SE7       30.25F
ZANESVILLE     CLOUDY    40  28  62 S7        30.27F
NEW PHILLY     NOT AVBL
$$




USA.gov is the U.S. government's official web portal to all federal, state and local government web resources and services.